x

Milton Blue Hill Observ Weather Station

10:54 - Fri 30th Sep 2016 All times are EDT. -4 hours from GMT.

  • Wind
    17mph, 30mph gusts
  • Air Temp 57°f
  • Sea Pressure 1030.1mb
  • Milton Blue Hill Observ
  • Milton Blue Hill Observ

More Historic Weather Station data

Upgrade to MSW Pro to gain access to the past 30 days of data for over 8000 Wavebouys and Weather Stations around the globe.

Join Pro

Comparision Forecast

View Surf forecast
   
ven. 09/30 10:54 17 30 mph 1030.1mb 57f
9:54 16 31 mph 1030.5mb 56f
8:54 14 25 mph 1030.8mb 55f
7:54 15 27 mph 1030.5mb 55f
6:54 16 29 mph 1030.5mb 55f
5:54 14 25 mph 1030.1mb 55f
4:54 15 24 mph 1030.1mb 54f
3:54 15 25 mph 1030.5mb 54f
2:54 16 27 mph 1030.8mb 54f
1:54 16 25 mph 1030.8mb 54f
12:54 15 25 mph 1031.5mb 54f
jeu. 09/29 11:54 15 25 mph 1031.8mb 54f
10:54 16 23 mph 1032.2mb 54f
9:54 18 27 mph 1032.2mb 53f
8:54 16 27 mph 1031.8mb 53f
7:54 15 27 mph 1031.5mb 52f
6:54 16 25 mph 1031.5mb 52f
5:54 13 21 mph 1031.5mb 53f
4:54 13 23 mph 1031.8mb 53f
3:54 15 23 mph 1031.5mb 54f
2:54 17 27 mph 1031.8mb 54f
1:54 13 24 mph 1031.8mb 54f
12:54 20 28 mph 1031.8mb 54f
11:54 17 25 mph 1031.8mb 54f
10:54 16 30 mph 1030.8mb 54f
9:54 20 28 mph 1031.2mb 53f
8:54 14 25 mph 1030.5mb 53f
7:54 17 24 mph 1029.8mb 52f
6:54 14 24 mph 1029.1mb 51f
5:54 13 23 mph 1028.8mb 52f
4:54 12 31 mph 1028.1mb 53f
3:54 15 25 mph 1027.8mb 54f
2:54 18 31 mph 1027.1mb 54f
1:54 15 28 mph 1027.1mb 54f
12:54 13 30 mph 1027.1mb 55f
mer. 09/28 11:54 15 29 mph 1027.1mb 55f
10:54 14 31 mph 1027.1mb 54f
9:54 15 27 mph 1026.1mb 54f
8:54 20 29 mph 1025.4mb 54f
7:54 16 29 mph 1025.1mb 53f
6:54 16 30 mph 1024.4mb 52f
5:54 16 30 mph 1024.4mb 52f
4:54 21 33 mph 1024mb 52f
3:54 20 32 mph 1023.7mb 52f
2:54 21 31 mph 1023.7mb 51f
1:54 13 30 mph 1023.4mb 52f
12:54 14 28 mph 1023.4mb 53f
11:54 14 24 mph 1023.4mb 53f
10:54 16 28 mph 1022.7mb 54f
9:54 13 29 mph 1023mb 54f
8:54 12 25 mph 1022.4mb 53f
7:54 15 27 mph 1021.7mb 55f
6:54 14 24 mph 1020.7mb 56f
5:54 14 24 mph 1020mb 57f
4:54 13 22 mph 1019mb 56f
3:54 12 22 mph 1018.6mb 57f
2:54 10 16 mph 1018mb 58f
1:54 13
mph
1017.6mb 58f
12:54 9
mph
1016.9mb 58f
mar. 09/27 11:54 9
mph
1016.6mb 59f
10:54 9
mph
1015.9mb 59f
9:54 7
mph
1015.2mb 59f
8:54 8
mph
1014.9mb 59f
7:54 10
mph
1014.2mb 60f
6:54 9
mph
1013.5mb 63f
5:54 3
mph
1012.9mb 67f